Time,TemperatureF,DewpointF,PressureIn,WindDirection,WindDirectionDegrees,WindSpeedMPH,WindSpeedGustMPH,Humidity,HourlyPrecipIn,Conditions,Clouds,dailyrainin,SoftwareType,DateUTC
2013-10-17 00:00:00,50.0,50.0,29.80,SW,218,12.1,18.3,100,0.00,,---,0.00,VWS V14.01,2013-10-17 04:00:00,
2013-10-17 00:05:00,50.2,50.2,29.80,WSW,239,5.8,14.3,100,0.00,,---,0.00,VWS V14.01,2013-10-17 04:05:00,
2013-10-17 00:10:00,50.2,50.2,29.80,SW,228,7.6,12.5,100,0.00,,---,0.00,VWS V14.01,2013-10-17 04:10:00,
2013-10-17 00:15:00,50.2,50.2,29.80,SW,215,8.9,11.6,100,0.00,,---,0.00,VWS V14.01,2013-10-17 04:15:00,
2013-10-17 00:20:00,50.2,50.2,29.80,WSW,253,7.2,16.6,100,0.00,,---,0.00,VWS V14.01,2013-10-17 04:20:00,
2013-10-17 00:25:00,49.8,49.8,29.80,SSW,195,11.2,16.1,100,0.00,,---,0.00,VWS V14.01,2013-10-17 04:25:00,
2013-10-17 00:30:00,50.0,50.0,29.80,SSW,207,9.4,13.9,100,0.00,,---,0.00,VWS V14.01,2013-10-17 04:30:00,
2013-10-17 00:35:00,50.0,50.0,29.80,SW,218,3.1,11.2,100,0.00,,---,0.00,VWS V14.01,2013-10-17 04:35:00,
2013-10-17 00:40:00,49.3,49.3,29.80,WSW,245,2.2,17.4,100,0.00,,---,0.00,VWS V14.01,2013-10-17 04:40:00,
2013-10-17 00:45:00,49.8,49.8,29.80,SSW,198,12.1,16.1,100,0.00,,---,0.00,VWS V14.01,2013-10-17 04:45:00,
2013-10-17 00:50:00,48.4,48.4,29.83,NW,321,7.2,11.6,100,0.00,,---,0.00,VWS V14.01,2013-10-17 04:50:00,
2013-10-17 00:55:00,49.8,49.8,29.80,SSW,204,8.5,12.5,100,0.00,,---,0.00,VWS V14.01,2013-10-17 04:55:00,
2013-10-17 01:00:00,50.0,50.0,29.80,SW,218,12.1,18.3,100,0.00,,---,0.00,VWS V14.01,2013-10-17 05:00:00,
2013-10-17 01:01:00,47.8,47.8,29.83,WSW,245,4.0,10.3,100,0.00,,---,0.00,VWS V14.01,2013-10-17 05:01:00,
2013-10-17 01:05:00,50.2,50.2,29.80,WSW,239,5.8,14.3,100,0.00,,---,0.00,VWS V14.01,2013-10-17 05:05:00,
2013-10-17 01:10:00,47.3,47.3,29.83,West,276,8.5,9.4,100,0.00,,---,0.00,VWS V14.01,2013-10-17 05:10:00,
2013-10-17 01:15:00,47.1,47.1,29.83,WNW,297,0.0,13.4,100,0.00,,---,0.00,VWS V14.01,2013-10-17 05:15:00,
2013-10-17 01:20:00,47.1,47.1,29.83,SW,225,5.4,5.8,100,0.00,,---,0.00,VWS V14.01,2013-10-17 05:20:00,
2013-10-17 01:25:00,46.9,46.9,29.83,SSW,207,6.7,8.9,100,0.00,,---,0.00,VWS V14.01,2013-10-17 05:25:00,
2013-10-17 01:30:00,46.9,46.9,29.83,SSE,157,4.9,10.7,100,0.00,,---,0.00,VWS V14.01,2013-10-17 05:30:00,
2013-10-17 01:35:00,46.8,46.8,29.83,SSE,160,2.7,6.7,100,0.00,,---,0.00,VWS V14.01,2013-10-17 05:35:00,
2013-10-17 01:40:00,46.6,46.6,29.83,South,173,3.6,5.8,100,0.00,,---,0.00,VWS V14.01,2013-10-17 05:40:00,
2013-10-17 01:45:00,48.7,48.7,29.83,West,280,8.5,10.3,100,0.00,,---,0.00,VWS V14.01,2013-10-17 05:45:00,
2013-10-17 01:46:00,46.4,46.4,29.83,South,173,2.2,3.6,100,0.00,,---,0.00,VWS V14.01,2013-10-17 05:46:00,
2013-10-17 01:50:00,48.4,48.4,29.83,NW,321,7.2,11.6,100,0.00,,---,0.00,VWS V14.01,2013-10-17 05:50:00,
2013-10-17 01:55:00,46.2,46.2,29.83,South,173,3.1,4.5,100,0.00,,---,0.00,VWS V14.01,2013-10-17 05:55:00,
2013-10-17 02:00:00,47.8,47.8,29.83,WSW,245,4.0,10.3,100,0.00,,---,0.00,VWS V14.01,2013-10-17 06:00:00,
2013-10-17 02:05:00,46.0,46.0,29.83,South,171,0.0,0.4,100,0.00,,---,0.00,VWS V14.01,2013-10-17 06:05:00,
2013-10-17 02:10:00,47.3,47.3,29.83,West,276,8.5,9.4,100,0.00,,---,0.00,VWS V14.01,2013-10-17 06:10:00,
2013-10-17 02:15:00,46.0,46.0,29.83,South,173,3.6,4.5,100,0.00,,---,0.00,VWS V14.01,2013-10-17 06:15:00,
2013-10-17 02:20:00,47.1,47.1,29.83,SW,225,5.4,5.8,100,0.00,,---,0.00,VWS V14.01,2013-10-17 06:20:00,
2013-10-17 02:25:00,46.0,46.0,29.83,South,171,0.0,3.1,100,0.00,,---,0.00,VWS V14.01,2013-10-17 06:25:00,
2013-10-17 02:30:00,46.9,46.9,29.83,SSE,157,4.9,10.7,100,0.00,,---,0.00,VWS V14.01,2013-10-17 06:30:00,
2013-10-17 02:35:00,46.0,46.0,29.83,South,173,0.0,1.8,100,0.00,,---,0.00,VWS V14.01,2013-10-17 06:35:00,
2013-10-17 02:40:00,46.6,46.6,29.83,South,173,3.6,5.8,100,0.00,,---,0.00,VWS V14.01,2013-10-17 06:40:00,
2013-10-17 02:45:00,46.0,46.0,29.83,South,174,0.0,0.0,100,0.00,,---,0.00,VWS V14.01,2013-10-17 06:45:00,
2013-10-17 02:50:00,46.2,46.2,29.83,South,173,3.1,5.4,100,0.00,,---,0.00,VWS V14.01,2013-10-17 06:50:00,
2013-10-17 02:55:00,45.9,45.9,29.83,South,173,0.0,0.0,100,0.00,,---,0.00,VWS V14.01,2013-10-17 06:55:00,
2013-10-17 03:00:00,45.9,45.9,29.83,South,173,0.0,0.0,100,0.00,,---,0.00,VWS V14.01,2013-10-17 07:00:00,
2013-10-17 03:05:00,45.9,45.9,29.83,South,173,0.0,0.0,100,0.00,,---,0.00,VWS V14.01,2013-10-17 07:05:00,
2013-10-17 03:10:00,46.0,46.0,29.83,South,173,0.0,0.0,100,0.00,,---,0.00,VWS V14.01,2013-10-17 07:10:00,
2013-10-17 03:15:00,45.9,45.9,29.83,South,173,0.0,0.4,100,0.00,,---,0.00,VWS V14.01,2013-10-17 07:15:00,
2013-10-17 03:20:00,46.0,46.0,29.83,South,171,2.7,3.6,100,0.00,,---,0.00,VWS V14.01,2013-10-17 07:20:00,
2013-10-17 03:25:00,45.9,45.9,29.83,South,173,1.3,3.6,100,0.00,,---,0.00,VWS V14.01,2013-10-17 07:25:00,
2013-10-17 03:30:00,46.0,46.0,29.83,South,173,0.0,2.2,100,0.00,,---,0.00,VWS V14.01,2013-10-17 07:30:00,
2013-10-17 03:35:00,46.0,46.0,29.83,South,173,0.0,3.1,100,0.00,,---,0.00,VWS V14.01,2013-10-17 07:35:00,
2013-10-17 03:40:00,46.0,46.0,29.83,South,173,0.0,0.0,100,0.00,,---,0.00,VWS V14.01,2013-10-17 07:40:00,
2013-10-17 03:45:00,46.4,46.4,29.83,South,171,0.0,2.7,100,0.00,,---,0.00,VWS V14.01,2013-10-17 07:45:00,
2013-10-17 03:50:00,46.6,46.6,29.83,North,8,0.0,4.0,100,0.00,,---,0.00,VWS V14.01,2013-10-17 07:50:00,
2013-10-17 03:55:00,46.6,46.6,29.83,North,8,0.0,0.0,100,0.00,,---,0.00,VWS V14.01,2013-10-17 07:55:00,
2013-10-17 04:00:00,46.6,46.6,29.83,North,8,0.0,0.0,100,0.00,,---,0.00,VWS V14.01,2013-10-17 08:00:00,
2013-10-17 04:05:00,46.4,46.4,29.83,North,9,0.0,0.0,100,0.00,,---,0.00,VWS V14.01,2013-10-17 08:05:00,
2013-10-17 04:10:00,46.6,46.6,29.83,NW,326,0.0,5.4,100,0.00,,---,0.00,VWS V14.01,2013-10-17 08:10:00,
2013-10-17 04:15:00,45.9,45.9,29.83,South,173,0.0,0.4,100,0.00,,---,0.00,VWS V14.01,2013-10-17 08:15:00,
2013-10-17 04:20:00,47.1,47.1,29.83,South,176,4.0,9.8,100,0.00,,---,0.00,VWS V14.01,2013-10-17 08:20:00,
2013-10-17 04:25:00,45.9,45.9,29.83,South,173,1.3,3.6,100,0.00,,---,0.00,VWS V14.01,2013-10-17 08:25:00,
2013-10-17 04:30:00,47.3,47.3,29.83,WSW,246,3.6,7.2,100,0.00,,---,0.00,VWS V14.01,2013-10-17 08:30:00,
2013-10-17 04:35:00,46.0,46.0,29.83,South,173,0.0,3.1,100,0.00,,---,0.00,VWS V14.01,2013-10-17 08:35:00,
2013-10-17 04:40:00,47.1,47.1,29.83,West,281,5.4,8.9,100,0.00,,---,0.00,VWS V14.01,2013-10-17 08:40:00,
2013-10-17 04:45:00,46.4,46.4,29.83,South,171,0.0,2.7,100,0.00,,---,0.00,VWS V14.01,2013-10-17 08:45:00,
2013-10-17 04:50:00,46.9,46.9,29.83,WNW,292,4.5,6.3,100,0.00,,---,0.00,VWS V14.01,2013-10-17 08:50:00,
2013-10-17 04:55:00,46.6,46.6,29.83,North,8,0.0,0.0,100,0.00,,---,0.00,VWS V14.01,2013-10-17 08:55:00,
2013-10-17 05:00:00,46.6,46.6,29.83,WNW,292,0.0,3.1,100,0.00,,---,0.00,VWS V14.01,2013-10-17 09:00:00,
2013-10-17 05:05:00,46.6,46.6,29.83,WNW,287,4.5,8.5,100,0.00,,---,0.00,VWS V14.01,2013-10-17 09:05:00,
2013-10-17 05:10:00,46.6,46.6,29.83,West,266,1.8,4.9,100,0.00,,---,0.00,VWS V14.01,2013-10-17 09:10:00,
2013-10-17 05:15:00,46.9,46.9,29.83,WNW,298,4.9,8.5,100,0.00,,---,0.00,VWS V14.01,2013-10-17 09:15:00,
2013-10-17 05:20:00,46.2,46.2,29.85,West,267,3.1,4.9,100,0.00,,---,0.00,VWS V14.01,2013-10-17 09:20:00,
2013-10-17 05:25:00,45.7,45.7,29.85,West,264,0.0,4.0,100,0.00,,---,0.00,VWS V14.01,2013-10-17 09:25:00,
2013-10-17 05:30:00,45.1,45.1,29.85,NW,308,0.0,7.2,100,0.00,,---,0.00,VWS V14.01,2013-10-17 09:30:00,
2013-10-17 05:35:00,44.6,44.6,29.85,NW,308,0.0,4.9,100,0.00,,---,0.00,VWS V14.01,2013-10-17 09:35:00,
2013-10-17 05:40:00,44.4,44.4,29.85,WNW,290,0.0,6.7,100,0.00,,---,0.00,VWS V14.01,2013-10-17 09:40:00,
2013-10-17 05:45:00,44.1,44.1,29.85,West,277,0.0,4.0,100,0.00,,---,0.00,VWS V14.01,2013-10-17 09:45:00,
2013-10-17 05:50:00,43.9,43.9,29.85,West,277,2.7,4.5,100,0.00,,---,0.00,VWS V14.01,2013-10-17 09:50:00,
2013-10-17 05:55:00,43.9,43.9,29.85,West,259,0.0,8.1,100,0.00,,---,0.00,VWS V14.01,2013-10-17 09:55:00,
2013-10-17 06:00:00,46.6,46.6,29.83,WNW,292,0.0,3.1,100,0.00,,---,0.00,VWS V14.01,2013-10-17 10:00:00,
2013-10-17 06:05:00,42.6,42.6,29.85,West,259,0.0,0.0,100,0.00,,---,0.00,VWS V14.01,2013-10-17 10:05:00,
2013-10-17 06:10:00,46.6,46.6,29.83,West,266,1.8,4.9,100,0.00,,---,0.00,VWS V14.01,2013-10-17 10:10:00,
2013-10-17 06:15:00,42.4,42.4,29.85,SE,142,0.0,5.8,100,0.00,,---,0.00,VWS V14.01,2013-10-17 10:15:00,
2013-10-17 06:20:00,46.2,46.2,29.85,West,267,3.1,4.9,100,0.00,,---,0.00,VWS V14.01,2013-10-17 10:20:00,
2013-10-17 06:25:00,41.7,41.7,29.85,SSE,156,3.6,4.0,100,0.00,,---,0.00,VWS V14.01,2013-10-17 10:25:00,
2013-10-17 06:30:00,41.9,41.9,29.85,WSW,240,0.4,9.4,100,0.00,,---,0.00,VWS V14.01,2013-10-17 10:30:00,
2013-10-17 06:35:00,42.1,42.1,29.85,WSW,242,0.0,1.8,100,0.00,,---,0.00,VWS V14.01,2013-10-17 10:35:00,
2013-10-17 06:40:00,44.4,44.4,29.85,WNW,290,0.0,6.7,100,0.00,,---,0.00,VWS V14.01,2013-10-17 10:40:00,
2013-10-17 06:45:00,40.6,40.6,29.85,ESE,116,3.1,4.0,100,0.00,,---,0.00,VWS V14.01,2013-10-17 10:45:00,
2013-10-17 06:50:00,40.3,40.3,29.85,ESE,116,0.0,3.1,100,0.00,,---,0.00,VWS V14.01,2013-10-17 10:50:00,
2013-10-17 06:55:00,43.9,43.9,29.85,West,259,0.0,8.1,100,0.00,,---,0.00,VWS V14.01,2013-10-17 10:55:00,
2013-10-17 07:00:00,39.4,39.4,29.85,SW,226,0.0,0.0,100,0.00,,---,0.00,VWS V14.01,2013-10-17 11:00:00,
2013-10-17 07:05:00,42.6,42.6,29.85,West,259,0.0,0.0,100,0.00,,---,0.00,VWS V14.01,2013-10-17 11:05:00,
2013-10-17 07:10:00,38.5,38.5,29.85,SW,228,0.0,0.0,100,0.00,,---,0.00,VWS V14.01,2013-10-17 11:10:00,
2013-10-17 07:15:00,42.4,42.4,29.85,SE,142,0.0,5.8,100,0.00,,---,0.00,VWS V14.01,2013-10-17 11:15:00,
2013-10-17 07:20:00,38.3,38.3,29.85,SW,228,2.2,3.6,100,0.00,,---,0.00,VWS V14.01,2013-10-17 11:20:00,
2013-10-17 07:25:00,41.7,41.7,29.85,SSE,156,3.6,4.0,100,0.00,,---,0.00,VWS V14.01,2013-10-17 11:25:00,
2013-10-17 07:30:00,39.0,39.0,29.85,SW,229,3.1,4.5,100,0.00,,---,0.00,VWS V14.01,2013-10-17 11:30:00,
2013-10-17 07:35:00,42.1,42.1,29.85,WSW,242,0.0,1.8,100,0.00,,---,0.00,VWS V14.01,2013-10-17 11:35:00,
2013-10-17 07:40:00,39.7,39.7,29.85,SW,228,2.7,5.4,100,0.00,,---,0.00,VWS V14.01,2013-10-17 11:40:00,
2013-10-17 07:45:00,40.6,40.6,29.85,SW,228,4.0,5.4,100,0.00,,---,0.00,VWS V14.01,2013-10-17 11:45:00,
2013-10-17 07:50:00,41.2,41.2,29.85,SW,226,4.5,6.3,100,0.00,,---,0.00,VWS V14.01,2013-10-17 11:50:00,
2013-10-17 07:55:00,41.5,41.5,29.85,SW,226,5.4,6.3,100,0.00,,---,0.00,VWS V14.01,2013-10-17 11:55:00,
2013-10-17 08:00:00,39.4,39.4,29.85,SW,226,0.0,0.0,100,0.00,,---,0.00,VWS V14.01,2013-10-17 12:00:00,
2013-10-17 08:05:00,42.1,42.1,29.85,SW,225,4.0,5.8,100,0.00,,---,0.00,VWS V14.01,2013-10-17 12:05:00,
2013-10-17 08:10:00,38.5,38.5,29.85,SW,228,0.0,0.0,100,0.00,,---,0.00,VWS V14.01,2013-10-17 12:10:00,
2013-10-17 08:15:00,43.0,43.0,29.85,SW,216,5.8,7.2,100,0.00,,---,0.00,VWS V14.01,2013-10-17 12:15:00,
2013-10-17 08:20:00,43.3,43.3,29.85,SW,218,6.3,7.6,100,0.00,,---,0.00,VWS V14.01,2013-10-17 12:20:00,
2013-10-17 08:25:00,44.1,44.1,29.85,SW,218,4.0,7.6,100,0.00,,---,0.00,VWS V14.01,2013-10-17 12:25:00,
2013-10-17 08:30:00,39.0,39.0,29.85,SW,229,3.1,4.5,100,0.00,,---,0.00,VWS V14.01,2013-10-17 12:30:00,
2013-10-17 08:31:00,45.0,45.0,29.85,SSW,208,7.2,7.6,100,0.00,,---,0.00,VWS V14.01,2013-10-17 12:31:00,
2013-10-17 08:35:00,39.2,39.2,29.85,SW,229,3.6,4.9,100,0.00,,---,0.00,VWS V14.01,2013-10-17 12:35:00,
2013-10-17 08:40:00,46.0,46.0,29.85,SSW,204,8.1,8.5,100,0.00,,---,0.00,VWS V14.01,2013-10-17 12:40:00,
2013-10-17 08:45:00,40.6,40.6,29.85,SW,228,4.0,5.4,100,0.00,,---,0.00,VWS V14.01,2013-10-17 12:45:00,
2013-10-17 08:50:00,47.8,46.8,29.85,SSW,205,7.2,8.9,96,0.00,,---,0.00,VWS V14.01,2013-10-17 12:50:00,
2013-10-17 08:55:00,47.8,46.8,29.85,SSW,209,11.2,12.5,96,0.00,,---,0.00,VWS V14.01,2013-10-17 12:55:00,
2013-10-17 09:00:00,41.9,41.9,29.85,SW,226,3.1,5.8,100,0.00,,---,0.00,VWS V14.01,2013-10-17 13:00:00,
2013-10-17 09:01:00,48.0,46.9,29.85,SSW,207,11.2,13.9,96,0.00,,---,0.00,VWS V14.01,2013-10-17 13:01:00,
2013-10-17 09:05:00,42.1,42.1,29.85,SW,225,4.0,5.8,100,0.00,,---,0.00,VWS V14.01,2013-10-17 13:05:00,
2013-10-17 09:06:00,48.2,47.4,29.85,SW,229,8.9,13.0,97,0.00,,---,0.00,VWS V14.01,2013-10-17 13:06:00,
2013-10-17 09:10:00,42.6,42.6,29.85,SW,226,4.5,5.4,100,0.00,,---,0.00,VWS V14.01,2013-10-17 13:10:00,
2013-10-17 09:15:00,43.0,43.0,29.85,SW,216,5.8,7.2,100,0.00,,---,0.00,VWS V14.01,2013-10-17 13:15:00,
2013-10-17 09:16:00,48.2,46.6,29.85,SSW,212,10.7,14.8,94,0.00,,---,0.00,VWS V14.01,2013-10-17 13:16:00,
2013-10-17 09:20:00,43.3,43.3,29.85,SW,218,6.3,7.6,100,0.00,,---,0.00,VWS V14.01,2013-10-17 13:20:00,
2013-10-17 09:25:00,44.1,44.1,29.85,SW,218,4.0,7.6,100,0.00,,---,0.00,VWS V14.01,2013-10-17 13:25:00,
2013-10-17 09:26:00,49.1,47.5,29.85,SSW,212,8.9,13.0,94,0.00,,---,0.00,VWS V14.01,2013-10-17 13:26:00,
2013-10-17 09:30:00,45.0,45.0,29.85,SSW,208,7.2,7.6,100,0.00,,---,0.00,VWS V14.01,2013-10-17 13:30:00,
2013-10-17 09:35:00,50.2,45.8,29.85,SW,229,10.3,16.6,85,0.00,,---,0.00,VWS V14.01,2013-10-17 13:35:00,
2013-10-17 09:40:00,46.0,46.0,29.85,SSW,204,8.1,8.5,100,0.00,,---,0.00,VWS V14.01,2013-10-17 13:40:00,
2013-10-17 09:41:00,50.5,46.5,29.85,SW,229,8.9,16.1,86,0.00,,---,0.00,VWS V14.01,2013-10-17 13:41:00,
2013-10-17 09:45:00,46.9,46.9,29.85,SSW,209,8.9,10.7,100,0.00,,---,0.00,VWS V14.01,2013-10-17 13:45:00,
2013-10-17 09:50:00,47.8,46.8,29.85,SSW,205,7.2,8.9,96,0.00,,---,0.00,VWS V14.01,2013-10-17 13:50:00,
2013-10-17 09:51:00,51.1,45.8,29.85,SW,221,9.4,13.0,82,0.00,,---,0.00,VWS V14.01,2013-10-17 13:51:00,
2013-10-17 09:55:00,47.8,46.8,29.85,SSW,209,11.2,12.5,96,0.00,,---,0.00,VWS V14.01,2013-10-17 13:55:00,
2013-10-17 10:00:00,48.0,46.9,29.85,SSW,207,11.2,13.9,96,0.00,,---,0.00,VWS V14.01,2013-10-17 14:00:00,
2013-10-17 10:01:00,51.6,45.7,29.85,SW,219,11.2,14.8,80,0.00,,---,0.00,VWS V14.01,2013-10-17 14:01:00,
2013-10-17 10:05:00,48.2,47.4,29.85,SW,229,8.9,13.0,97,0.00,,---,0.00,VWS V14.01,2013-10-17 14:05:00,
2013-10-17 10:10:00,52.0,46.0,29.85,South,185,8.1,16.1,80,0.00,,---,0.00,VWS V14.01,2013-10-17 14:10:00,
2013-10-17 10:15:00,52.3,46.0,29.85,South,191,10.7,17.0,79,0.00,,---,0.00,VWS V14.01,2013-10-17 14:15:00,
2013-10-17 10:20:00,50.7,45.1,29.85,SSW,211,10.7,14.3,81,0.00,,---,0.00,VWS V14.01,2013-10-17 14:20:00,
2013-10-17 10:25:00,49.1,47.5,29.85,SSW,212,8.9,13.0,94,0.00,,---,0.00,VWS V14.01,2013-10-17 14:25:00,
2013-10-17 10:26:00,50.4,44.1,29.85,SSW,212,8.9,15.7,79,0.00,,---,0.00,VWS V14.01,2013-10-17 14:26:00,
2013-10-17 10:30:00,49.6,46.8,29.85,SW,215,13.9,13.9,90,0.00,,---,0.00,VWS V14.01,2013-10-17 14:30:00,
2013-10-17 10:35:00,50.2,45.8,29.85,SW,229,10.3,16.6,85,0.00,,---,0.00,VWS V14.01,2013-10-17 14:35:00,
2013-10-17 10:36:00,50.0,43.4,29.85,SW,219,4.0,13.0,78,0.00,,---,0.00,VWS V14.01,2013-10-17 14:36:00,
2013-10-17 10:40:00,50.5,46.5,29.85,SW,229,8.9,16.1,86,0.00,,---,0.00,VWS V14.01,2013-10-17 14:40:00,
2013-10-17 10:45:00,50.7,45.4,29.85,SW,215,8.9,15.2,82,0.00,,---,0.00,VWS V14.01,2013-10-17 14:45:00,
2013-10-17 10:46:00,50.0,44.1,29.85,SW,230,2.7,10.3,80,0.00,,---,0.00,VWS V14.01,2013-10-17 14:46:00,
2013-10-17 10:50:00,51.1,45.8,29.85,SW,221,9.4,13.0,82,0.00,,---,0.00,VWS V14.01,2013-10-17 14:50:00,
2013-10-17 10:55:00,50.0,43.1,29.85,SW,236,4.5,11.2,77,0.00,,---,0.00,VWS V14.01,2013-10-17 14:55:00,
2013-10-17 11:00:00,51.6,45.7,29.85,SW,219,11.2,14.8,80,0.00,,---,0.00,VWS V14.01,2013-10-17 15:00:00,
2013-10-17 11:01:00,50.2,43.6,29.85,SW,232,2.7,5.8,78,0.00,,---,0.00,VWS V14.01,2013-10-17 15:01:00,
2013-10-17 11:05:00,52.0,46.3,29.85,SSW,198,9.4,13.9,81,0.00,,---,0.00,VWS V14.01,2013-10-17 15:05:00,
2013-10-17 11:10:00,52.0,46.0,29.85,South,185,8.1,16.1,80,0.00,,---,0.00,VWS V14.01,2013-10-17 15:10:00,
2013-10-17 11:11:00,50.0,43.4,29.85,SW,219,6.3,9.8,78,0.00,,---,0.00,VWS V14.01,2013-10-17 15:11:00,
2013-10-17 11:15:00,52.3,46.0,29.85,South,191,10.7,17.0,79,0.00,,---,0.00,VWS V14.01,2013-10-17 15:15:00,
2013-10-17 11:20:00,50.7,45.1,29.85,SSW,211,10.7,14.3,81,0.00,,---,0.00,VWS V14.01,2013-10-17 15:20:00,
2013-10-17 11:21:00,51.3,44.0,29.85,West,281,1.8,4.9,76,0.00,,---,0.00,VWS V14.01,2013-10-17 15:21:00,
2013-10-17 11:25:00,50.4,44.1,29.85,SSW,212,8.9,15.7,79,0.00,,---,0.00,VWS V14.01,2013-10-17 15:25:00,
2013-10-17 11:30:00,50.4,44.4,29.85,SW,221,7.6,12.5,80,0.00,,---,0.00,VWS V14.01,2013-10-17 15:30:00,
2013-10-17 11:31:00,51.3,44.0,29.85,WSW,257,3.1,3.6,76,0.00,,---,0.00,VWS V14.01,2013-10-17 15:31:00,
2013-10-17 11:35:00,50.0,43.4,29.85,SW,219,4.0,13.0,78,0.00,,---,0.00,VWS V14.01,2013-10-17 15:35:00,
2013-10-17 11:40:00,51.6,43.3,29.85,WSW,245,0.9,7.2,73,0.00,,---,0.00,VWS V14.01,2013-10-17 15:40:00,
2013-10-17 11:45:00,52.0,42.5,29.85,West,273,3.1,8.9,70,0.00,,---,0.00,VWS V14.01,2013-10-17 15:45:00,
2013-10-17 11:50:00,51.1,41.7,29.85,West,259,4.9,8.1,70,0.00,,---,0.00,VWS V14.01,2013-10-17 15:50:00,
2013-10-17 11:55:00,50.0,43.1,29.85,SW,236,4.5,11.2,77,0.00,,---,0.00,VWS V14.01,2013-10-17 15:55:00,
2013-10-17 11:56:00,50.5,42.6,29.85,WSW,243,2.7,7.6,74,0.00,,---,0.00,VWS V14.01,2013-10-17 15:56:00,
2013-10-17 12:00:00,50.2,43.6,29.85,SW,232,2.7,5.8,78,0.00,,---,0.00,VWS V14.01,2013-10-17 16:00:00,
2013-10-17 12:05:00,50.2,43.6,29.85,SW,225,2.2,8.1,78,0.00,,---,0.00,VWS V14.01,2013-10-17 16:05:00,
2013-10-17 12:06:00,50.5,41.9,29.85,WSW,256,2.2,7.2,72,0.00,,---,0.00,VWS V14.01,2013-10-17 16:06:00,
2013-10-17 12:10:00,50.0,43.4,29.85,SW,219,6.3,9.8,78,0.00,,---,0.00,VWS V14.01,2013-10-17 16:10:00,
2013-10-17 12:15:00,50.2,43.3,29.85,SW,219,1.3,6.3,77,0.00,,---,0.00,VWS V14.01,2013-10-17 16:15:00,
2013-10-17 12:16:00,52.2,42.3,29.83,WSW,254,2.7,7.2,69,0.00,,---,0.00,VWS V14.01,2013-10-17 16:16:00,
2013-10-17 12:20:00,51.3,44.0,29.85,West,281,1.8,4.9,76,0.00,,---,0.00,VWS V14.01,2013-10-17 16:20:00,
2013-10-17 12:25:00,51.3,41.8,29.83,West,260,4.5,5.8,70,0.00,,---,0.00,VWS V14.01,2013-10-17 16:25:00,
2013-10-17 12:30:00,51.3,44.0,29.85,WSW,257,3.1,3.6,76,0.00,,---,0.00,VWS V14.01,2013-10-17 16:30:00,
2013-10-17 12:31:00,52.0,42.1,29.83,SSW,211,6.7,10.3,69,0.00,,---,0.00,VWS V14.01,2013-10-17 16:31:00,
2013-10-17 12:35:00,51.6,43.6,29.85,West,270,4.9,5.8,74,0.00,,---,0.00,VWS V14.01,2013-10-17 16:35:00,
2013-10-17 12:40:00,51.6,43.3,29.85,WSW,245,0.9,7.2,73,0.00,,---,0.00,VWS V14.01,2013-10-17 16:40:00,
2013-10-17 12:41:00,52.5,41.5,29.83,SW,222,6.3,9.8,66,0.00,,---,0.00,VWS V14.01,2013-10-17 16:41:00,
2013-10-17 12:45:00,52.0,42.5,29.85,West,273,3.1,8.9,70,0.00,,---,0.00,VWS V14.01,2013-10-17 16:45:00,
2013-10-17 12:50:00,51.1,41.7,29.85,West,259,4.9,8.1,70,0.00,,---,0.00,VWS V14.01,2013-10-17 16:50:00,
2013-10-17 12:51:00,55.2,43.7,29.83,SW,214,3.6,11.2,65,0.00,,---,0.00,VWS V14.01,2013-10-17 16:51:00,
2013-10-17 12:55:00,50.5,42.6,29.85,WSW,243,2.7,7.6,74,0.00,,---,0.00,VWS V14.01,2013-10-17 16:55:00,
2013-10-17 13:00:00,50.4,42.0,29.85,SW,230,3.6,6.3,73,0.00,,---,0.00,VWS V14.01,2013-10-17 17:00:00,
2013-10-17 13:01:00,53.6,42.5,29.83,SW,225,6.3,9.8,66,0.00,,---,0.00,VWS V14.01,2013-10-17 17:01:00,
2013-10-17 13:05:00,50.5,41.9,29.85,WSW,256,2.2,7.2,72,0.00,,---,0.00,VWS V14.01,2013-10-17 17:05:00,
2013-10-17 13:10:00,55.0,42.7,29.83,WNW,297,2.7,7.6,63,0.00,,---,0.00,VWS V14.01,2013-10-17 17:10:00,
2013-10-17 13:15:00,52.2,42.3,29.83,WSW,254,2.7,7.2,69,0.00,,---,0.00,VWS V14.01,2013-10-17 17:15:00,
2013-10-17 13:16:00,56.8,45.2,29.83,NW,318,5.8,6.7,65,0.00,,---,0.00,VWS V14.01,2013-10-17 17:16:00,
2013-10-17 13:20:00,51.8,42.3,29.83,West,266,2.7,5.8,70,0.00,,---,0.00,VWS V14.01,2013-10-17 17:20:00,
2013-10-17 13:25:00,51.3,41.8,29.83,West,260,4.5,5.8,70,0.00,,---,0.00,VWS V14.01,2013-10-17 17:25:00,
2013-10-17 13:26:00,56.1,43.7,29.83,NW,307,5.4,9.8,63,0.00,,---,0.00,VWS V14.01,2013-10-17 17:26:00,
2013-10-17 13:30:00,52.0,42.1,29.83,SSW,211,6.7,10.3,69,0.00,,---,0.00,VWS V14.01,2013-10-17 17:30:00,
2013-10-17 13:35:00,53.2,43.0,29.83,SW,228,6.7,10.7,68,0.00,,---,0.00,VWS V14.01,2013-10-17 17:35:00,
2013-10-17 13:36:00,58.3,46.2,29.83,West,266,4.9,10.7,64,0.00,,---,0.00,VWS V14.01,2013-10-17 17:36:00,
2013-10-17 13:40:00,52.5,41.5,29.83,SW,222,6.3,9.8,66,0.00,,---,0.00,VWS V14.01,2013-10-17 17:40:00,
2013-10-17 13:45:00,53.8,43.1,29.83,WSW,240,10.7,12.5,67,0.00,,---,0.00,VWS V14.01,2013-10-17 17:45:00,
2013-10-17 13:46:00,56.7,43.0,29.80,WNW,301,6.7,10.7,60,0.00,,---,0.00,VWS V14.01,2013-10-17 17:46:00,
2013-10-17 13:50:00,55.2,43.7,29.83,SW,214,3.6,11.2,65,0.00,,---,0.00,VWS V14.01,2013-10-17 17:50:00,
2013-10-17 13:55:00,55.9,42.3,29.80,NNW,339,6.7,10.3,60,0.00,,---,0.00,VWS V14.01,2013-10-17 17:55:00,
2013-10-17 14:00:00,55.2,42.9,29.80,WNW,295,5.4,11.2,63,0.00,,---,0.00,VWS V14.01,2013-10-17 18:00:00,
2013-10-17 14:05:00,55.0,41.4,29.80,WNW,301,5.4,10.3,60,0.00,,---,0.00,VWS V14.01,2013-10-17 18:05:00,
2013-10-17 14:10:00,54.1,41.8,29.80,NW,305,2.7,6.7,63,0.00,,---,0.00,VWS V14.01,2013-10-17 18:10:00,
2013-10-17 14:15:00,54.1,40.6,29.80,West,276,6.7,9.4,60,0.00,,---,0.00,VWS V14.01,2013-10-17 18:15:00,
2013-10-17 14:20:00,57.6,43.8,29.83,SW,226,6.3,7.2,60,0.00,,---,0.00,VWS V14.01,2013-10-17 18:20:00,
2013-10-17 14:21:00,54.1,41.8,29.80,WNW,298,2.2,6.7,63,0.00,,---,0.00,VWS V14.01,2013-10-17 18:21:00,
2013-10-17 14:25:00,56.1,43.7,29.83,NW,307,5.4,9.8,63,0.00,,---,0.00,VWS V14.01,2013-10-17 18:25:00,
2013-10-17 14:30:00,55.9,43.5,29.83,NW,308,3.6,5.8,63,0.00,,---,0.00,VWS V14.01,2013-10-17 18:30:00,
2013-10-17 14:31:00,54.5,40.9,29.80,West,267,1.3,6.7,60,0.00,,---,0.00,VWS V14.01,2013-10-17 18:31:00,
2013-10-17 14:35:00,58.3,46.2,29.83,West,266,4.9,10.7,64,0.00,,---,0.00,VWS V14.01,2013-10-17 18:35:00,
2013-10-17 14:40:00,58.1,43.0,29.83,NW,305,7.6,10.3,57,0.00,,---,0.00,VWS V14.01,2013-10-17 18:40:00,
2013-10-17 14:41:00,57.0,43.3,29.80,NW,314,4.0,8.1,60,0.00,,---,0.00,VWS V14.01,2013-10-17 18:41:00,
2013-10-17 14:45:00,56.7,43.0,29.80,WNW,301,6.7,10.7,60,0.00,,---,0.00,VWS V14.01,2013-10-17 18:45:00,
2013-10-17 14:50:00,55.4,41.8,29.80,WSW,249,0.4,7.2,60,0.00,,---,0.00,VWS V14.01,2013-10-17 18:50:00,
2013-10-17 14:51:00,58.1,43.0,29.77,WNW,285,2.7,7.6,57,0.00,,---,0.00,VWS V14.01,2013-10-17 18:51:00,
2013-10-17 14:55:00,55.9,42.3,29.80,NNW,339,6.7,10.3,60,0.00,,---,0.00,VWS V14.01,2013-10-17 18:55:00,
2013-10-17 14:56:00,59.2,44.0,29.77,WNW,297,0.0,5.4,57,0.00,,---,0.00,VWS V14.01,2013-10-17 18:56:00,
2013-10-17 15:00:00,55.2,42.9,29.80,WNW,295,5.4,11.2,63,0.00,,---,0.00,VWS V14.01,2013-10-17 19:00:00,
2013-10-17 15:01:00,59.9,44.2,29.77,SW,229,7.2,8.5,56,0.00,,---,0.00,VWS V14.01,2013-10-17 19:01:00,
2013-10-17 15:05:00,55.0,41.4,29.80,WNW,301,5.4,10.3,60,0.00,,---,0.00,VWS V14.01,2013-10-17 19:05:00,
2013-10-17 15:06:00,60.1,44.3,29.77,SSW,212,0.0,7.6,56,0.00,,---,0.00,VWS V14.01,2013-10-17 19:06:00,
2013-10-17 15:10:00,54.1,41.8,29.80,NW,305,2.7,6.7,63,0.00,,---,0.00,VWS V14.01,2013-10-17 19:10:00,
2013-10-17 15:15:00,54.1,40.6,29.80,West,276,6.7,9.4,60,0.00,,---,0.00,VWS V14.01,2013-10-17 19:15:00,
2013-10-17 15:16:00,56.8,41.8,29.80,WSW,247,7.6,8.9,57,0.00,,---,0.00,VWS V14.01,2013-10-17 19:16:00,
2013-10-17 15:20:00,54.1,41.8,29.80,WNW,298,2.2,6.7,63,0.00,,---,0.00,VWS V14.01,2013-10-17 19:20:00,
2013-10-17 15:25:00,53.6,41.3,29.80,West,270,3.1,6.7,63,0.00,,---,0.00,VWS V14.01,2013-10-17 19:25:00,
2013-10-17 15:26:00,55.6,41.0,29.80,SW,221,6.7,8.1,58,0.00,,---,0.00,VWS V14.01,2013-10-17 19:26:00,
2013-10-17 15:30:00,54.5,40.9,29.80,West,267,1.3,6.7,60,0.00,,---,0.00,VWS V14.01,2013-10-17 19:30:00,
2013-10-17 15:35:00,56.5,43.6,29.80,WNW,291,2.7,5.4,62,0.00,,---,0.00,VWS V14.01,2013-10-17 19:35:00,
2013-10-17 15:36:00,54.9,40.4,29.80,SW,222,0.0,5.8,58,0.00,,---,0.00,VWS V14.01,2013-10-17 19:36:00,
2013-10-17 15:40:00,57.0,43.3,29.80,NW,314,4.0,8.1,60,0.00,,---,0.00,VWS V14.01,2013-10-17 19:40:00,
2013-10-17 15:45:00,58.1,43.9,29.77,NW,304,7.2,7.6,59,0.00,,---,0.00,VWS V14.01,2013-10-17 19:45:00,
2013-10-17 15:46:00,55.2,40.7,29.77,SW,221,0.0,0.0,58,0.00,,---,0.00,VWS V14.01,2013-10-17 19:46:00,
2013-10-17 15:50:00,58.1,43.0,29.77,WNW,285,2.7,7.6,57,0.00,,---,0.00,VWS V14.01,2013-10-17 19:50:00,
2013-10-17 15:51:00,55.4,41.8,29.77,SW,222,0.0,0.0,60,0.00,,---,0.00,VWS V14.01,2013-10-17 19:51:00,
2013-10-17 15:55:00,59.2,44.0,29.77,WNW,297,0.0,5.4,57,0.00,,---,0.00,VWS V14.01,2013-10-17 19:55:00,
2013-10-17 15:56:00,55.6,41.9,29.77,SW,215,0.0,0.0,60,0.00,,---,0.00,VWS V14.01,2013-10-17 19:56:00,
2013-10-17 16:00:00,59.9,44.2,29.77,SW,229,7.2,8.5,56,0.00,,---,0.00,VWS V14.01,2013-10-17 20:00:00,
2013-10-17 16:01:00,55.6,41.9,29.77,SW,225,4.0,4.5,60,0.00,,---,0.00,VWS V14.01,2013-10-17 20:01:00,
2013-10-17 16:05:00,60.1,44.3,29.77,SSW,212,0.0,7.6,56,0.00,,---,0.00,VWS V14.01,2013-10-17 20:05:00,
2013-10-17 16:06:00,55.2,41.6,29.77,SW,226,0.0,4.0,60,0.00,,---,0.00,VWS V14.01,2013-10-17 20:06:00,
2013-10-17 16:10:00,59.5,44.3,29.77,West,274,6.3,7.6,57,0.00,,---,0.00,VWS V14.01,2013-10-17 20:10:00,
2013-10-17 16:11:00,55.4,41.8,29.77,SW,225,0.0,0.0,60,0.00,,---,0.00,VWS V14.01,2013-10-17 20:11:00,
2013-10-17 16:15:00,56.8,41.8,29.80,WSW,247,7.6,8.9,57,0.00,,---,0.00,VWS V14.01,2013-10-17 20:15:00,
2013-10-17 16:20:00,55.8,41.2,29.80,West,264,4.5,8.9,58,0.00,,---,0.00,VWS V14.01,2013-10-17 20:20:00,
2013-10-17 16:21:00,55.2,41.6,29.77,SW,228,0.9,3.1,60,0.00,,---,0.00,VWS V14.01,2013-10-17 20:21:00,
2013-10-17 16:25:00,55.6,41.0,29.80,SW,221,6.7,8.1,58,0.00,,---,0.00,VWS V14.01,2013-10-17 20:25:00,
2013-10-17 16:30:00,54.9,41.2,29.80,SW,221,4.5,6.7,60,0.00,,---,0.00,VWS V14.01,2013-10-17 20:30:00,
2013-10-17 16:31:00,54.9,42.5,29.74,NNW,339,1.8,4.0,63,0.00,,---,0.00,VWS V14.01,2013-10-17 20:31:00,
2013-10-17 16:35:00,54.9,40.4,29.80,SW,222,0.0,5.8,58,0.00,,---,0.00,VWS V14.01,2013-10-17 20:35:00,
2013-10-17 16:40:00,55.0,40.5,29.80,SW,221,0.0,0.0,58,0.00,,---,0.00,VWS V14.01,2013-10-17 20:40:00,
2013-10-17 16:41:00,54.1,41.8,29.74,NNE,25,4.5,4.9,63,0.00,,---,0.00,VWS V14.01,2013-10-17 20:41:00,
2013-10-17 16:45:00,55.2,40.7,29.77,SW,221,0.0,0.0,58,0.00,,---,0.00,VWS V14.01,2013-10-17 20:45:00,
2013-10-17 16:50:00,55.4,41.8,29.77,SW,222,0.0,0.0,60,0.00,,---,0.00,VWS V14.01,2013-10-17 20:50:00,
2013-10-17 16:51:00,54.0,42.5,29.74,NNE,25,0.0,1.3,65,0.00,,---,0.00,VWS V14.01,2013-10-17 20:51:00,
2013-10-17 16:55:00,55.6,41.9,29.77,SW,215,0.0,0.0,60,0.00,,---,0.00,VWS V14.01,2013-10-17 20:55:00,
2013-10-17 17:00:00,55.6,41.9,29.77,SW,225,4.0,4.5,60,0.00,,---,0.00,VWS V14.01,2013-10-17 21:00:00,
2013-10-17 17:01:00,53.6,42.5,29.74,NNE,30,4.0,4.9,66,0.00,,---,0.00,VWS V14.01,2013-10-17 21:01:00,
2013-10-17 17:05:00,55.2,41.6,29.77,SW,226,0.0,4.0,60,0.00,,---,0.00,VWS V14.01,2013-10-17 21:05:00,
2013-10-17 17:10:00,55.4,41.8,29.77,SW,225,0.0,0.0,60,0.00,,---,0.00,VWS V14.01,2013-10-17 21:10:00,
2013-10-17 17:11:00,53.4,42.4,29.74,NNE,16,1.8,4.9,66,0.00,,---,0.00,VWS V14.01,2013-10-17 21:11:00,
2013-10-17 17:15:00,55.4,41.8,29.77,SW,226,0.0,0.0,60,0.00,,---,0.00,VWS V14.01,2013-10-17 21:15:00,
2013-10-17 17:16:00,53.2,42.2,29.74,NNE,16,2.2,5.4,66,0.00,,---,0.00,VWS V14.01,2013-10-17 21:16:00,
2013-10-17 17:20:00,55.2,41.6,29.77,SW,228,0.9,3.1,60,0.00,,---,0.00,VWS V14.01,2013-10-17 21:20:00,
2013-10-17 17:21:00,53.1,42.0,29.74,North,4,4.0,5.8,66,0.00,,---,0.00,VWS V14.01,2013-10-17 21:21:00,
2013-10-17 17:25:00,54.9,42.5,29.77,SW,228,0.0,3.1,63,0.00,,---,0.00,VWS V14.01,2013-10-17 21:25:00,
2013-10-17 17:26:00,52.9,41.8,29.74,North,7,4.0,4.9,66,0.00,,---,0.00,VWS V14.01,2013-10-17 21:26:00,
2013-10-17 17:30:00,54.9,42.5,29.74,NNW,339,1.8,4.0,63,0.00,,---,0.00,VWS V14.01,2013-10-17 21:30:00,
2013-10-17 17:31:00,52.7,41.7,29.71,NNE,18,2.2,4.5,66,0.00,,---,0.00,VWS V14.01,2013-10-17 21:31:00,
2013-10-17 17:35:00,54.5,42.2,29.74,NNE,23,2.2,4.9,63,0.00,,---,0.00,VWS V14.01,2013-10-17 21:35:00,
2013-10-17 17:36:00,52.3,42.1,29.71,NNE,16,2.7,3.6,68,0.00,,---,0.00,VWS V14.01,2013-10-17 21:36:00,
2013-10-17 17:40:00,54.1,41.8,29.74,NNE,25,4.5,4.9,63,0.00,,---,0.00,VWS V14.01,2013-10-17 21:40:00,
2013-10-17 17:41:00,51.6,42.2,29.71,NNE,16,0.4,3.6,70,0.00,,---,0.00,VWS V14.01,2013-10-17 21:41:00,
2013-10-17 17:45:00,54.0,42.5,29.74,NNE,25,1.3,4.5,65,0.00,,---,0.00,VWS V14.01,2013-10-17 21:45:00,
2013-10-17 17:46:00,51.6,41.8,29.71,NNE,16,0.0,3.1,69,0.00,,---,0.00,VWS V14.01,2013-10-17 21:46:00,
2013-10-17 17:50:00,54.0,42.5,29.74,NNE,25,0.0,1.3,65,0.00,,---,0.00,VWS V14.01,2013-10-17 21:50:00,
2013-10-17 17:55:00,53.8,42.3,29.74,NNE,25,1.3,5.4,65,0.00,,---,0.00,VWS V14.01,2013-10-17 21:55:00,
2013-10-17 17:56:00,50.4,43.8,29.71,NNE,16,0.0,0.0,78,0.00,,---,0.00,VWS V14.01,2013-10-17 21:56:00,
2013-10-17 18:00:00,53.6,42.5,29.74,NNE,30,4.0,4.9,66,0.00,,---,0.00,VWS V14.01,2013-10-17 22:00:00,
2013-10-17 18:01:00,49.8,43.6,29.71,NNE,18,0.0,0.0,79,0.00,,---,0.00,VWS V14.01,2013-10-17 22:01:00,
2013-10-17 18:05:00,53.4,42.4,29.74,NNE,29,2.7,4.5,66,0.00,,---,0.00,VWS V14.01,2013-10-17 22:05:00,
2013-10-17 18:06:00,49.8,43.2,29.71,NE,50,3.6,4.5,78,0.00,,---,0.00,VWS V14.01,2013-10-17 22:06:00,
2013-10-17 18:10:00,53.4,42.4,29.74,NNE,16,1.8,4.9,66,0.00,,---,0.00,VWS V14.01,2013-10-17 22:10:00,
2013-10-17 18:15:00,53.2,42.2,29.74,NNE,16,2.2,5.4,66,0.00,,---,0.00,VWS V14.01,2013-10-17 22:15:00,
2013-10-17 18:16:00,50.7,42.4,29.68,NE,53,4.0,6.7,73,0.00,,---,0.00,VWS V14.01,2013-10-17 22:16:00,
2013-10-17 18:20:00,53.1,42.0,29.74,North,4,4.0,5.8,66,0.00,,---,0.00,VWS V14.01,2013-10-17 22:20:00,
2013-10-17 18:25:00,52.9,41.8,29.74,North,7,4.0,4.9,66,0.00,,---,0.00,VWS V14.01,2013-10-17 22:25:00,
2013-10-17 18:26:00,50.7,41.7,29.68,NE,49,3.1,6.3,71,0.00,,---,0.00,VWS V14.01,2013-10-17 22:26:00,
2013-10-17 18:30:00,52.7,41.7,29.71,NNE,18,2.2,4.5,66,0.00,,---,0.00,VWS V14.01,2013-10-17 22:30:00,
2013-10-17 18:35:00,52.3,42.1,29.71,NNE,16,2.7,3.6,68,0.00,,---,0.00,VWS V14.01,2013-10-17 22:35:00,
2013-10-17 18:36:00,50.2,41.5,29.68,NE,56,0.0,5.4,72,0.00,,---,0.00,VWS V14.01,2013-10-17 22:36:00,
2013-10-17 18:40:00,51.6,42.2,29.71,NNE,16,0.4,3.6,70,0.00,,---,0.00,VWS V14.01,2013-10-17 22:40:00,
2013-10-17 18:45:00,51.6,41.8,29.71,NNE,16,0.0,3.1,69,0.00,,---,0.00,VWS V14.01,2013-10-17 22:45:00,
2013-10-17 18:46:00,49.6,41.7,29.68,ENE,57,0.0,3.6,74,0.00,,---,0.00,VWS V14.01,2013-10-17 22:46:00,
2013-10-17 18:50:00,51.3,44.0,29.71,NNE,18,0.0,2.2,76,0.00,,---,0.00,VWS V14.01,2013-10-17 22:50:00,
2013-10-17 18:55:00,50.4,43.8,29.71,NNE,16,0.0,0.0,78,0.00,,---,0.00,VWS V14.01,2013-10-17 22:55:00,
2013-10-17 18:56:00,49.5,41.5,29.68,NE,54,0.0,0.0,74,0.00,,---,0.00,VWS V14.01,2013-10-17 22:56:00,
2013-10-17 19:00:00,49.8,43.6,29.71,NNE,18,0.0,0.0,79,0.00,,---,0.00,VWS V14.01,2013-10-17 23:00:00,
2013-10-17 19:05:00,49.8,43.2,29.71,NE,50,3.6,4.5,78,0.00,,---,0.00,VWS V14.01,2013-10-17 23:05:00,
2013-10-17 19:06:00,49.1,42.2,29.65,NE,47,0.0,4.5,77,0.00,,---,0.00,VWS V14.01,2013-10-17 23:06:00,
2013-10-17 19:10:00,50.2,42.9,29.71,NE,49,3.1,4.0,76,0.00,,---,0.00,VWS V14.01,2013-10-17 23:10:00,
2013-10-17 19:15:00,50.7,42.4,29.68,NE,53,4.0,6.7,73,0.00,,---,0.00,VWS V14.01,2013-10-17 23:15:00,
2013-10-17 19:16:00,49.3,42.0,29.65,NE,50,3.6,7.2,76,0.00,,---,0.00,VWS V14.01,2013-10-17 23:16:00,
2013-10-17 19:20:00,50.7,41.7,29.68,NE,53,2.7,6.3,71,0.00,,---,0.00,VWS V14.01,2013-10-17 23:20:00,
2013-10-17 19:21:00,49.3,42.0,29.65,ENE,59,2.2,5.4,76,0.00,,---,0.00,VWS V14.01,2013-10-17 23:21:00,
2013-10-17 19:25:00,50.7,41.7,29.68,NE,49,3.1,6.3,71,0.00,,---,0.00,VWS V14.01,2013-10-17 23:25:00,
2013-10-17 19:26:00,49.3,42.0,29.65,NNE,12,4.0,5.4,76,0.00,,---,0.00,VWS V14.01,2013-10-17 23:26:00,
2013-10-17 19:30:00,50.4,41.3,29.68,NE,49,2.2,4.5,71,0.00,,---,0.00,VWS V14.01,2013-10-17 23:30:00,
2013-10-17 19:31:00,49.3,42.4,29.65,NE,47,1.3,5.8,77,0.00,,---,0.00,VWS V14.01,2013-10-17 23:31:00,
2013-10-17 19:35:00,50.2,41.5,29.68,NE,56,0.0,5.4,72,0.00,,---,0.00,VWS V14.01,2013-10-17 23:35:00,
2013-10-17 19:36:00,48.7,42.5,29.65,NNE,16,1.8,4.5,79,0.00,,---,0.00,VWS V14.01,2013-10-17 23:36:00,
2013-10-17 19:40:00,50.0,41.7,29.68,ENE,59,1.3,4.0,73,0.00,,---,0.00,VWS V14.01,2013-10-17 23:40:00,
2013-10-17 19:41:00,48.6,42.7,29.65,ENE,61,2.7,4.9,80,0.00,,---,0.00,VWS V14.01,2013-10-17 23:41:00,
2013-10-17 19:45:00,49.6,41.7,29.68,ENE,57,0.0,3.6,74,0.00,,---,0.00,VWS V14.01,2013-10-17 23:45:00,
2013-10-17 19:50:00,49.5,41.5,29.68,ENE,59,0.0,0.0,74,0.00,,---,0.00,VWS V14.01,2013-10-17 23:50:00,
2013-10-17 19:51:00,47.3,44.5,29.65,North,360,5.8,6.3,90,0.00,,---,0.00,VWS V14.01,2013-10-17 23:51:00,
2013-10-17 19:55:00,49.5,41.5,29.68,NE,54,0.0,0.0,74,0.00,,---,0.00,VWS V14.01,2013-10-17 23:55:00,
2013-10-17 20:00:00,49.1,42.2,29.65,NE,40,0.0,0.0,77,0.00,,---,0.00,VWS V14.01,2013-10-18 00:00:00,
2013-10-17 20:01:00,46.6,46.0,29.65,North,359,6.3,8.1,98,0.00,,---,0.00,VWS V14.01,2013-10-18 00:01:00,
2013-10-17 20:05:00,49.1,42.2,29.65,NE,47,0.0,4.5,77,0.00,,---,0.00,VWS V14.01,2013-10-18 00:05:00,
2013-10-17 20:10:00,49.3,42.4,29.65,ENE,63,3.6,6.3,77,0.00,,---,0.00,VWS V14.01,2013-10-18 00:10:00,
2013-10-17 20:11:00,46.6,45.8,29.65,NNE,12,7.2,8.5,97,0.00,,---,0.00,VWS V14.01,2013-10-18 00:11:00,
2013-10-17 20:15:00,49.3,42.0,29.65,NE,50,3.6,7.2,76,0.00,,---,0.00,VWS V14.01,2013-10-18 00:15:00,
2013-10-17 20:20:00,49.3,42.0,29.65,ENE,59,2.2,5.4,76,0.00,,---,0.00,VWS V14.01,2013-10-18 00:20:00,
2013-10-17 20:21:00,46.2,46.2,29.65,NNW,333,5.4,7.6,100,0.00,,---,0.00,VWS V14.01,2013-10-18 00:21:00,
2013-10-17 20:25:00,49.3,42.0,29.65,NNE,12,4.0,5.4,76,0.00,,---,0.00,VWS V14.01,2013-10-18 00:25:00,
2013-10-17 20:30:00,49.3,42.4,29.65,NE,47,1.3,5.8,77,0.00,,---,0.00,VWS V14.01,2013-10-18 00:30:00,
2013-10-17 20:31:00,45.7,45.7,29.68,NNW,346,4.0,7.6,100,0.00,,---,0.00,VWS V14.01,2013-10-18 00:31:00,
2013-10-17 20:35:00,48.7,42.5,29.65,NNE,16,1.8,4.5,79,0.00,,---,0.00,VWS V14.01,2013-10-18 00:35:00,
2013-10-17 20:40:00,48.6,42.7,29.65,ENE,61,2.7,4.9,80,0.00,,---,0.00,VWS V14.01,2013-10-18 00:40:00,
2013-10-17 20:41:00,45.3,45.3,29.68,NNE,15,7.2,8.9,100,0.00,,---,0.00,VWS V14.01,2013-10-18 00:41:00,
2013-10-17 20:45:00,48.0,43.7,29.65,NE,36,3.6,6.3,85,0.00,,---,0.00,VWS V14.01,2013-10-18 00:45:00,
2013-10-17 20:50:00,47.3,44.5,29.65,North,360,5.8,6.3,90,0.00,,---,0.00,VWS V14.01,2013-10-18 00:50:00,
2013-10-17 20:51:00,45.0,45.0,29.65,NNE,28,4.0,6.7,100,0.00,,---,0.00,VWS V14.01,2013-10-18 00:51:00,
2013-10-17 20:55:00,46.9,45.6,29.65,NNE,25,4.9,7.2,95,0.00,,---,0.00,VWS V14.01,2013-10-18 00:55:00,
2013-10-17 21:00:00,46.6,46.0,29.65,North,359,6.3,8.1,98,0.00,,---,0.00,VWS V14.01,2013-10-18 01:00:00,
2013-10-17 21:01:00,44.6,44.6,29.65,North,2,6.7,9.4,100,0.00,,---,0.00,VWS V14.01,2013-10-18 01:01:00,
2013-10-17 21:05:00,46.6,46.6,29.65,North,356,7.6,8.9,100,0.00,,---,0.00,VWS V14.01,2013-10-18 01:05:00,
2013-10-17 21:06:00,44.4,44.4,29.65,NNE,15,5.4,10.3,100,0.00,,---,0.00,VWS V14.01,2013-10-18 01:06:00,
2013-10-17 21:10:00,46.6,45.8,29.65,NNE,12,7.2,8.5,97,0.00,,---,0.00,VWS V14.01,2013-10-18 01:10:00,
2013-10-17 21:11:00,44.4,44.4,29.65,North,359,4.0,11.2,100,0.00,,---,0.00,VWS V14.01,2013-10-18 01:11:00,
2013-10-17 21:15:00,46.6,45.8,29.65,NNE,21,5.4,9.4,97,0.00,,---,0.00,VWS V14.01,2013-10-18 01:15:00,
2013-10-17 21:16:00,44.4,44.4,29.68,NNW,338,7.2,10.3,100,0.00,,---,0.00,VWS V14.01,2013-10-18 01:16:00,
2013-10-17 21:20:00,46.2,46.2,29.65,NNW,333,5.4,7.6,100,0.00,,---,0.00,VWS V14.01,2013-10-18 01:20:00,
2013-10-17 21:25:00,45.9,45.9,29.65,NNW,347,6.7,8.1,100,0.00,,---,0.00,VWS V14.01,2013-10-18 01:25:00,
2013-10-17 21:26:00,44.2,44.2,29.68,NNW,330,13.0,16.6,100,0.00,,---,0.00,VWS V14.01,2013-10-18 01:26:00,
2013-10-17 21:30:00,45.7,45.7,29.68,NNW,346,4.0,7.6,100,0.00,,---,0.00,VWS V14.01,2013-10-18 01:30:00,
2013-10-17 21:31:00,44.2,44.2,29.68,NNW,328,9.8,16.6,100,0.00,,---,0.00,VWS V14.01,2013-10-18 01:31:00,
2013-10-17 21:35:00,45.3,45.3,29.68,NNW,347,3.1,4.0,100,0.00,,---,0.00,VWS V14.01,2013-10-18 01:35:00,
2013-10-17 21:36:00,44.2,44.2,29.68,NNE,21,6.3,11.2,100,0.00,,---,0.00,VWS V14.01,2013-10-18 01:36:00,
2013-10-17 21:40:00,45.3,45.3,29.68,NNE,15,7.2,8.9,100,0.00,,---,0.00,VWS V14.01,2013-10-18 01:40:00,
2013-10-17 21:45:00,45.1,45.1,29.65,North,7,4.0,9.4,100,0.00,,---,0.00,VWS V14.01,2013-10-18 01:45:00,
2013-10-17 21:46:00,43.9,43.9,29.68,NE,36,7.6,10.7,100,0.00,,---,0.00,VWS V14.01,2013-10-18 01:46:00,
2013-10-17 21:50:00,45.0,45.0,29.65,NNE,28,4.0,6.7,100,0.00,,---,0.00,VWS V14.01,2013-10-18 01:50:00,
2013-10-17 21:51:00,43.7,43.7,29.68,North,5,8.9,11.6,100,0.00,,---,0.00,VWS V14.01,2013-10-18 01:51:00,
2013-10-17 21:55:00,44.8,44.8,29.65,NNE,26,6.7,8.1,100,0.00,,---,0.00,VWS V14.01,2013-10-18 01:55:00,
2013-10-17 21:56:00,43.7,43.7,29.68,North,2,7.6,10.3,100,0.00,,---,0.00,VWS V14.01,2013-10-18 01:56:00,
2013-10-17 22:00:00,44.6,44.6,29.65,North,2,6.7,9.4,100,0.00,,---,0.00,VWS V14.01,2013-10-18 02:00:00,
2013-10-17 22:05:00,44.4,44.4,29.65,NNE,15,5.4,10.3,100,0.00,,---,0.00,VWS V14.01,2013-10-18 02:05:00,
2013-10-17 22:06:00,43.7,43.7,29.65,NNW,338,9.4,13.0,100,0.00,,---,0.00,VWS V14.01,2013-10-18 02:06:00,
2013-10-17 22:10:00,44.4,44.4,29.65,North,359,4.0,11.2,100,0.00,,---,0.00,VWS V14.01,2013-10-18 02:10:00,
2013-10-17 22:15:00,44.4,44.4,29.68,NNW,338,7.2,10.3,100,0.00,,---,0.00,VWS V14.01,2013-10-18 02:15:00,
2013-10-17 22:16:00,43.5,43.5,29.68,NNW,328,9.8,13.9,100,0.00,,---,0.00,VWS V14.01,2013-10-18 02:16:00,
2013-10-17 22:20:00,44.4,44.4,29.68,NNW,333,5.8,10.3,100,0.00,,---,0.00,VWS V14.01,2013-10-18 02:20:00,
2013-10-17 22:25:00,44.2,44.2,29.68,NNW,330,13.0,16.6,100,0.00,,---,0.00,VWS V14.01,2013-10-18 02:25:00,
2013-10-17 22:26:00,43.5,43.5,29.68,North,7,6.3,11.2,100,0.00,,---,0.00,VWS V14.01,2013-10-18 02:26:00,
2013-10-17 22:30:00,44.2,44.2,29.68,NNW,328,9.8,16.6,100,0.00,,---,0.00,VWS V14.01,2013-10-18 02:30:00,
2013-10-17 22:35:00,44.2,44.2,29.68,NNE,21,6.3,11.2,100,0.00,,---,0.00,VWS V14.01,2013-10-18 02:35:00,
2013-10-17 22:36:00,43.7,43.7,29.68,NNW,343,11.6,13.4,100,0.00,,---,0.00,VWS V14.01,2013-10-18 02:36:00,
2013-10-17 22:40:00,44.1,44.1,29.68,NNE,12,5.4,11.2,100,0.00,,---,0.00,VWS V14.01,2013-10-18 02:40:00,
2013-10-17 22:45:00,43.9,43.9,29.68,NE,36,7.6,10.7,100,0.00,,---,0.00,VWS V14.01,2013-10-18 02:45:00,
2013-10-17 22:46:00,43.5,43.5,29.68,North,354,3.6,9.4,100,0.00,,---,0.00,VWS V14.01,2013-10-18 02:46:00,
2013-10-17 22:50:00,43.7,43.7,29.68,North,5,8.9,11.6,100,0.00,,---,0.00,VWS V14.01,2013-10-18 02:50:00,
2013-10-17 22:55:00,43.7,43.7,29.68,North,2,7.6,10.3,100,0.00,,---,0.00,VWS V14.01,2013-10-18 02:55:00,
2013-10-17 22:56:00,43.5,43.5,29.68,North,349,6.7,9.8,100,0.00,,---,0.00,VWS V14.01,2013-10-18 02:56:00,
2013-10-17 23:00:00,43.7,43.7,29.65,North,11,6.7,10.3,100,0.00,,---,0.00,VWS V14.01,2013-10-18 03:00:00,
2013-10-17 23:01:00,43.3,43.3,29.68,North,359,4.9,9.4,100,0.00,,---,0.00,VWS V14.01,2013-10-18 03:01:00,
2013-10-17 23:05:00,43.7,43.7,29.65,NNW,338,9.4,13.0,100,0.00,,---,0.00,VWS V14.01,2013-10-18 03:05:00,
2013-10-17 23:06:00,43.3,43.3,29.68,NNW,343,4.0,6.7,100,0.00,,---,0.00,VWS V14.01,2013-10-18 03:06:00,
2013-10-17 23:10:00,43.5,43.5,29.65,NNW,345,7.6,12.1,100,0.00,,---,0.00,VWS V14.01,2013-10-18 03:10:00,
2013-10-17 23:11:00,43.3,43.3,29.68,NNW,338,5.4,9.4,100,0.00,,---,0.00,VWS V14.01,2013-10-18 03:11:00,
2013-10-17 23:15:00,43.5,43.5,29.68,NNW,328,9.8,13.9,100,0.00,,---,0.00,VWS V14.01,2013-10-18 03:15:00,
2013-10-17 23:20:00,43.5,43.5,29.68,North,349,6.7,13.4,100,0.00,,---,0.00,VWS V14.01,2013-10-18 03:20:00,
2013-10-17 23:21:00,43.3,43.3,29.68,NNE,26,7.6,11.6,100,0.00,,---,0.00,VWS V14.01,2013-10-18 03:21:00,
2013-10-17 23:25:00,43.5,43.5,29.68,North,7,6.3,11.2,100,0.00,,---,0.00,VWS V14.01,2013-10-18 03:25:00,
2013-10-17 23:30:00,43.7,43.7,29.68,North,356,7.2,8.9,100,0.00,,---,0.00,VWS V14.01,2013-10-18 03:30:00,
2013-10-17 23:31:00,43.3,43.3,29.65,ENE,63,4.5,6.3,100,0.00,,---,0.00,VWS V14.01,2013-10-18 03:31:00,
2013-10-17 23:35:00,43.7,43.7,29.68,NNW,343,11.6,13.4,100,0.00,,---,0.00,VWS V14.01,2013-10-18 03:35:00,
2013-10-17 23:40:00,43.5,43.5,29.68,NNW,338,9.4,11.6,100,0.00,,---,0.00,VWS V14.01,2013-10-18 03:40:00,
2013-10-17 23:41:00,43.2,43.2,29.65,NE,49,3.6,4.0,100,0.00,,---,0.00,VWS V14.01,2013-10-18 03:41:00,
2013-10-17 23:45:00,43.5,43.5,29.68,North,354,3.6,9.4,100,0.00,,---,0.00,VWS V14.01,2013-10-18 03:45:00,
2013-10-17 23:50:00,43.5,43.5,29.68,North,2,7.2,9.8,100,0.00,,---,0.00,VWS V14.01,2013-10-18 03:50:00,
2013-10-17 23:51:00,42.6,42.6,29.65,NE,49,0.0,1.8,100,0.00,,---,0.00,VWS V14.01,2013-10-18 03:51:00,
2013-10-17 23:55:00,43.5,43.5,29.68,North,349,6.7,9.8,100,0.00,,---,0.00,VWS V14.01,2013-10-18 03:55:00,